Location: Winthrop
(48.4780°N, 120.1850°W)
Time: 01:54:29
(UTC-08:00)

Envisat - Visible Passes

Search period start: 01 December 2021 00:00
Search period end: 11 December 2021 00:00
Orbit: 764 x 766 km, 98.2° (Epoch: 30 November)

Date Brightness Start Highest point End Pass type
(mag) Time Alt. Az. Time Alt. Az. Time Alt. Az.
01 Dec 4.5 04:26:12 10° NNE 04:30:51 35° E 04:35:28 10° SSE visible
01 Dec 3.5 06:05:15 10° N 06:09:51 36° WNW 06:14:27 10° SW visible
01 Dec 5.8 17:25:13 10° SW 17:28:43 19° W 17:32:15 10° NW visible
02 Dec 5.6 03:50:17 10° NE 03:53:37 17° E 03:56:57 10° SE visible
02 Dec 2.9 05:28:05 10° N 05:33:10 71° WNW 05:38:13 10° SSW visible
02 Dec 4.7 16:46:50 10° SSW 16:51:31 37° W 16:56:14 10° NNW visible
03 Dec 3.5 04:51:16 10° NNE 04:56:17 58° E 05:01:17 10° S visible
03 Dec 4.0 06:30:59 10° N 06:34:56 23° WNW 06:38:52 10° WSW visible
03 Dec 6.3 17:53:06 10° W 17:54:24 11° W 17:55:41 10° WNW visible
04 Dec 4.9 04:14:50 10° NE 04:19:12 28° E 04:23:33 10° SSE visible
04 Dec 3.3 05:53:34 10° N 05:58:23 44° WNW 06:03:10 10° SW visible
04 Dec 5.6 17:13:03 10° SW 17:17:02 23° W 17:21:03 10° NW visible
05 Dec 5.9 03:39:19 10° NE 03:41:55 14° E 03:44:29 10° ESE visible
05 Dec 2.9 05:16:31 10° NNE 05:21:38 87° WNW 05:26:43 10° SSW visible
05 Dec 4.5 06:57:03 10° NNW 06:59:55 15° NW 07:02:46 10° W visible
05 Dec 4.3 16:35:01 10° S 16:39:54 46° W 16:44:48 10° NNW visible
06 Dec 4.0 04:39:47 10° NNE 04:44:41 46° E 04:49:33 10° S visible
06 Dec 3.8 06:19:13 10° N 06:23:30 28° WNW 06:27:45 10° WSW visible
06 Dec 6.0 17:40:05 10° WSW 17:42:40 14° W 17:45:16 10° NW visible
07 Dec 5.2 04:03:32 10° NE 04:07:32 23° E 04:11:31 10° SE visible
07 Dec 3.0 05:41:55 10° N 05:46:53 54° WNW 05:51:48 10° SW visible
07 Dec 5.2 17:01:02 10° SSW 17:05:22 28° W 17:09:45 10° NW visible
08 Dec 6.1 03:28:55 10° ENE 03:30:11 11° E 03:31:26 10° E visible
08 Dec 3.1 05:04:57 10° NNE 05:10:04 77° ESE 05:15:09 10° S visible
08 Dec 4.3 06:45:07 10° NNW 06:48:31 18° WNW 06:51:54 10° W visible
09 Dec 4.4 04:28:20 10° NNE 04:33:04 37° E 04:37:45 10° SSE visible
09 Dec 3.6 06:07:29 10° N 06:12:02 34° WNW 06:16:33 10° SW visible
09 Dec 5.9 17:27:38 10° SW 17:30:57 17° W 17:34:18 10° NW visible
10 Dec 5.5 03:52:19 10° NE 03:55:51 19° E 03:59:21 10° SE visible
10 Dec 2.9 05:30:18 10° N 05:35:21 67° WNW 05:40:23 10° SSW visible
10 Dec 4.9 16:49:07 10° SSW 16:53:43 35° W 16:58:23 10° NNW visible
